Location: ?astrovice
(49.6513°N, 14.9287°E)
Time: 17:48:45
(UTC+00:00)

X-37B - Pass Details

Date: 04 August 2021
Orbit: 381 x 393 km, 45.0° (Epoch: 29 August)

Event Time Altitude Azimuth Distance (km) Brightness Sun altitude
Exits shadow 02:16:23 15° 195° (SSW) 1,136 2.4 -11.1°
Maximum altitude 02:17:50 20° 159° (SSE) 951 2.3 -10.9°
Drops below altitude 10° 02:20:13 10° 110° (ESE) 1,398 3.8 -10.7°
Sets 02:22:37 0° 92° (E) 2,254 5.2 -10.4°
